www.pogodaiklimat.ru
ПОГОДА в Конкорде
Время
и дата
08:53 19.07
09:53 19.07
10:53 19.07
11:53 19.07
12:53 19.07
13:53 19.07
14:53 19.07
15:53 19.07
16:53 19.07
17:53 19.07
18:53 19.07
19:53 19.07
20:53 19.07
21:53 19.07
22:53 19.07
23:53 19.07
00:53 20.07
01:53 20.07
02:53 20.07
03:53 20.07
04:53 20.07
05:53 20.07
06:53 20.07
07:53 20.07
08:53 20.07
09:53 20.07
10:53 20.07
11:53 20.07
12:53 20.07
13:53 20.07
14:53 20.07
15:53 20.07
16:42 20.07
16:53 20.07
17:53 20.07
18:53 20.07
19:53 20.07
20:53 20.07
21:53 20.07
22:53 20.07
23:53 20.07
00:53 21.07
01:53 21.07
02:53 21.07
03:53 21.07
04:53 21.07
05:53 21.07
06:53 21.07
Ветер
(напр.,м/с)
Видим. Явления Облачность Т
(С)
Тd
(С)
f
(%)
Тe
(С)
Тes
(С)
Комфортность P
(гПа)
Po
(гПа)
Тmin
(С)
Tmax
(С)
R
(мм)
R24
(мм)
S
(см)
СЗ 2 16 км ясно +26.7 +12.8 42 +28 +35 жарко 1013.9 1014.3
СВ 2 16 км ясно +29.4 +13.9 39 +31 +43 жарко 1013.5 1013.9 +16.1 +29.4
нст 2 16 км ясно +33.3 +13.3 30 +34 +50 очень
жарко
1013.3 1013.6
СЗ 5 16 км ясно +35.6 +8.9 20 +34 +44 очень
жарко
1012.8 1013.3
СЗ 5 16 км ясно +37.2 +6.7 15 +35 +45 очень
жарко
1012.3 1012.6
СЗ 6 16 км ясно +38.9 +7.2 15 +37 +44 очень
жарко
1011.6 1011.9
З 5 16 км ясно +39.4 +6.7 14 +37 +46 очень
жарко
1010.9 1011.2
З 8 16 км ясно +38.3 +5.6 13 +35 +38 очень
жарко
1010.2 1010.6 +29.4 +40.0
З 6
{10}
16 км ясно +37.8 +5.6 14 +35 +38 очень
жарко
1009.8 1010.2
З 5
{9}
16 км ясно +36.1 +5.6 15 +33 +36 жарко 1009.8 1010.2
нст 2 16 км ясно +33.9 +5.6 17 +32 +33 жарко 1010.2 1010.6
ЮЗ 5 16 км ясно +31.7 +5.6 19 +30 +30 жарко 1010.6 1010.9
ЮЗ 3 16 км ясно +31.1 +5.6 20 +29 +29 жарко 1011.0 1011.2
Ю 4 16 км ясно +28.3 +7.2 26 +28 +28 жарко 1011.1 1011.6 +28.3 +38.3
С 3 16 км ясно +23.9 +9.4 40 +25 +25 комфорт 1010.8 1011.2
С 2 16 км ясно +22.2 +11.1 49 +24 +24 комфорт 1010.6 1010.9
С 2 16 км ясно +20.0 +12.2 61 +22 +22 комфорт 1010.6 1010.9
штиль 0 16 км ясно +20.0 +12.8 63 +22 +22 комфорт 1010.3 1010.9
СЗ 2 16 км ясно +18.3 +13.3 73 +19 +19 1010.2 1010.6
З 2 16 км ясно +17.8 +13.3 75 +18 +18 1010.3 1010.9 +17.2 +28.3
С 2 16 км ясно +17.2 +13.9 81 +18 +18 1010.7 1011.2
С 2 16 км ясно +17.8 +13.9 78 +18 +18 1011.0 1011.6
СЗ 2 16 км ясно +20.6 +13.9 65 +24 +25 комфорт 1011.5 1011.9
СЗ 2 16 км ясно +23.3 +13.3 53 +26 +30 жарко 1011.8 1012.3
СЗ 2 16 км ясно +26.7 +13.9 45 +29 +36 жарко 1011.7 1012.3
З 4 16 км ясно +29.4 +12.8 36 +31 +38 жарко 1011.4 1011.9 +17.2 +29.4
СЗ 5 16 км ясно +31.1 +11.1 29 +31 +39 жарко 1011.2 1011.6
СЗ 7 16 км ясно +33.3 +11.1 26 +33 +38 жарко 1011.1 1011.6
З 5
{8}
16 км ясно +35.0 +11.1 23 +34 +45 очень
жарко
1010.4 1010.9
З 6 16 км ясно +35.6 +12.2 24 +35 +43 очень
жарко
1010.3 1010.6
З 4 16 км ясно +35.0 +11.7 24 +35 +46 очень
жарко
1009.8 1010.2
З 6 16 км ясно +34.4 +10.6 23 +34 +39 очень
жарко
1009.4 1009.9 +29.4 +35.6
Ю 6 16 км ясно +31.1 +13.3 34 +32 +36 жарко 1009.5
Ю 6 16 км ясно +30.6 +13.3 35 +32 +35 жарко 1009.1 1009.5
Ю 8 16 км ясно +28.3 +12.8 38 +30 +30 жарко 1009.7 1010.2
Ю 6 16 км ясно +25.6 +12.2 43 +27 +28 жарко 1010.1 1010.6
Ю 9
{11}
16 км ясно +22.8 +12.2 51 +25 +25 комфорт 1010.6 1010.9
Ю 8
{12}
16 км ясно +20.6 +11.7 57 +22 +22 комфорт 1010.9 1011.2
Ю 8
{13}
16 км ясно +19.4 +11.7 61 +20 +20 1010.9 1011.2 +19.4 +34.4
Ю 8
{12}
16 км ясно +17.8 +11.7 67 +17 +17 1011.2 1011.6
Ю 8
{12}
16 км ясно +16.7 +11.7 72 +15 +15 1011.2 1011.6
Ю 10
{14}
16 км ясно +16.1 +11.7 75 +14 +14 1011.2 1011.6
Ю 10
{12}
16 км ясно +15.6 +12.2 80 +13 +13 1011.2 1011.6
Ю 8 16 км ясно +15.0 +12.2 83 +13 +13 1010.9 1011.6
Ю 8
{12}
16 км ясно +15.0 +11.7 81 +13 +13 1011.1 1011.6 +15.0 +19.4
Ю 9 16 км ясно +14.4 +11.7 84 +12 +12 1011.5 1011.9
Ю 7 16 км ясно +15.0 +11.7 81 +13 +13 1011.9 1012.3
Ю 8
{11}
16 км ясно +16.7 +12.2 75 +15 +15 1012.2 1012.6
Местоположение метеостанции Buchanan Field: широта 37.9917 долгота -122.0519 высота над уровнем моря 7 м.
В архиве по умолчанию представлена погода в Конкорде за последние 1-2 суток. Обновление информации о фактической погоде в базе происходит ежечасно! Архивные данные за месяц целиком и за предыдущие месяцы Вы можете получить, выбрав интересующий диапазон дат из раскрывающегося списка и нажав кнопку "Ввод!".
Внимание! Архив погоды МЕТАР в базе сайта по станциям, не включенным в климатический монитор, хранится не более 60 дней. Нет смысла пытаться выбрать более раннюю дату.
*Определитесь, кто Вы:
Внимание! Время в таблицах - местное (без учета летнего времени). Для получения всемирного времени необходимо вычесть поправку, которая равна -8 ч.
Смотрите также архив погоды в соседних городах и на ближайших метеорологических станциях:
Партнеры нашего сайта:      
Пояснения к столбцам:
  • Ветер - указаны скорость ветра в м/с - средняя за 10 мин, порывы в срок и между сроками (в фигурных скобках) и направление, откуда дует ветер: С - северный,
  • СВ - северо-восточный, В - восточный, ЮВ - юго-восточный, Ю - южный, ЮЗ - юго-западный, З - западный, СЗ - северо-западный.
  • Видимость - горизонтальная дальность видимости в метрах или километрах. При видимости от 1 до 10 км при отсутствии осадков обычно наблюдается дымка, при ухудшении видимости до 1 км и менее - туман. В сухую погоду видимость может ухудшаться дымом, пылью или мглою.
  • Явления - указаны атмосферные явления, наблюдавшиеся в срок или в последний час перед сроком; фигурными скобками обозначены явления, наблюдавшиеся между сроками (за 1-3 часа до срока); квадратными скобками обозначены град или гололедные отложения с указанием их диаметра в мм.
  • Облачность - указаны через наклонную черту общая и нижняя облачность в баллах и высота нижней границы облаков в метрах; квадратными скобками обозначены формы облаков: Ci - перистые, Cs - перисто-слоистые, Cc - перисто-кучевые, Ac - высококучевые, As - высокослоистые, Sc - слоисто-кучевые, Ns - слоисто-дождевые, Cu - кучевые, Cb - кучево-дождевые. Подробнее классификацию облаков см. в Атласе облаков (PDF).
  • T - Температура воздуха - температура, измеренная на высоте 2 м над землей.
  • Td - Температура точки росы - температура, при понижении до которой содержащийся в воздухе водяной пар достигнет насыщения.
  • f - Относительная влажность воздуха - влажноcть воздуха, измеренная на высоте 2 м над землей.
  • Te - Эффективная температура - температура, которую ощущает одетый по сезону человек в тени. Характеристика душности погоды. При расчете учитывается влияние влажности воздуха и скорости ветра на теплоощущения человека.
  • Tes - Эффективная температура на солнце - температура, которую ощущает человек, с поправкой на солнечный нагрев. Характеристика знойности погоды. Зависит от высоты солнца над горизонтом, облачности и скорости ветра. Ночью, в пасмурную погоду, а также при ветре 12 м/с и более поправка равна нулю.
  • P - Атмосферное давление - приведенное к уровню моря атмосферное давление.
  • Po - Атмосферное давление - измеренное на уровне метеостанции атмосферное давление.
  • Tmin - Минимальная температура - минимум температуры воздуха на высоте 2 м над землей.
  • Tmax - Максимальная температура - максимум температуры воздуха на высоте 2 м над землей.
  • R - Количество осадков - Количество выпавших осадков за период времени, мм. При наведении курсора мыши на число - период времени, за который выпало указанное количество осадков.
  • R24 - Количество осадков - Количество выпавших осадков за 24 часа, мм.
  • S - Снежный покров - Высота снежного покрова, см. При наведении курсора мыши на число - состояние снежного покрова и степень покрытия местности в баллах.